Chrysopouli, Greece

1:33 AM EEST on April 30, 2017 (GMT +0300)
Megas Alexandros

Weather History for LGKV - December, 2012

Change the Weather History Date:

Friday, December 14, 2012

  Actual Average Record
Temperature  
Mean Temperature 37 °F -  
Max Temperature 42 °F 47 °F 59 °F (2011)
Min Temperature 32 °F 36 °F 30 °F (2001)
Degree Days  
Heating Degree Days 28    
Moisture  
Dew Point 29 °F    
Average Humidity 69    
Maximum Humidity 81    
Minimum Humidity 57    
Precipitation  
Precipitation 0.00 in - - ()
Sea Level Pressure  
Sea Level Pressure 30.40 in    
Wind  
Wind Speed 5 mph ()    
Max Wind Speed 12 mph    
Max Gust Speed -    
Visibility 6.2 miles    
Events      
Averages and records for this station are not official NWS values.
T = Trace of Precipitation, MM = Missing Value Source: Averaged Metar Reports

Daily Weather History Graph

Daily Weather History Graph

Search for Another Location

Airport or City:

Trip Planner

Search our weather history database for the weather conditions in past years. The results will help you decide how hot, cold, wet, or windy it might be!

Date:

Astronomy

Dec. 14, 2012 Rise Set
Actual Time 7:38 AM EET 4:54 PM EET
Civil Twilight 7:07 AM EET 5:25 PM EET
Nautical Twilight 6:33 AM EET 5:59 PM EET
Astronomical Twilight 5:59 AM EET 6:33 PM EET
Moon 8:26 AM EET (12/14) 6:24 PM EET (12/14)
Length of Visible Light 10h 17m
Length of Day
9h 15m
New Moon, 2% of the Moon is Illuminated
Dec 14
New Moon
Dec 20
First Quarter
Dec 28
Full
Jan 5
Last Quarter
Jan 11
New

Hourly Weather History & Observations

Time (EET) Temp. Windchill Dew Point Humidity Pressure Visibility Wind Dir Wind Speed Gust Speed Precip Events Conditions
5:20 AM 32.0 °F 27.5 °F 26.6 °F 80% 30.39 in 6.2 mi NE 4.6 mph - N/A   Partly Cloudy
5:50 AM 32.0 °F 26.4 °F 26.6 °F 80% 30.39 in 6.2 mi NE 5.8 mph - N/A   Partly Cloudy
6:20 AM 32.0 °F 25.6 °F 26.6 °F 80% 30.39 in 6.2 mi NE 6.9 mph - N/A   Partly Cloudy
6:50 AM 33.8 °F 28.6 °F 28.4 °F 81% 30.39 in 6.2 mi NE 5.8 mph - N/A   Scattered Clouds
7:20 AM 33.8 °F 28.6 °F 28.4 °F 81% 30.39 in 6.2 mi NE 5.8 mph - N/A   Mostly Cloudy
7:50 AM 33.8 °F 28.6 °F 28.4 °F 81% 30.39 in 6.2 mi NE 5.8 mph - N/A   Mostly Cloudy
8:20 AM 33.8 °F 27.7 °F 28.4 °F 81% 30.39 in 6.2 mi NE 6.9 mph - N/A   Mostly Cloudy
8:50 AM 35.6 °F 30.7 °F 28.4 °F 75% 30.39 in 6.2 mi ENE 5.8 mph - N/A   Scattered Clouds
9:20 AM 35.6 °F 30.7 °F 28.4 °F 75% 30.42 in 6.2 mi NE 5.8 mph - N/A   Scattered Clouds
9:50 AM 35.6 °F 29.9 °F 28.4 °F 75% 30.42 in 6.2 mi NE 6.9 mph - N/A   Scattered Clouds
10:20 AM 35.6 °F 29.9 °F 28.4 °F 75% 30.42 in 6.2 mi NE 6.9 mph - N/A   Scattered Clouds
10:50 AM 39.2 °F 33.6 °F 28.4 °F 65% 30.42 in 6.2 mi NE 8.1 mph - N/A   Mostly Cloudy
11:20 AM 39.2 °F 32.5 °F 28.4 °F 65% 30.42 in 6.2 mi ENE 10.4 mph - N/A   Mostly Cloudy
11:50 AM 39.2 °F 32.0 °F 30.2 °F 70% 30.42 in 6.2 mi NE 11.5 mph - N/A   Mostly Cloudy
12:20 PM 39.2 °F 33.6 °F 30.2 °F 70% 30.39 in 6.2 mi NE 8.1 mph - N/A   Mostly Cloudy
12:50 PM 41.0 °F 36.4 °F 26.6 °F 57% 30.39 in 6.2 mi NE 6.9 mph - N/A   Mostly Cloudy
1:20 PM 41.0 °F 37.1 °F 26.6 °F 57% 30.39 in 6.2 mi NE 5.8 mph - N/A   Mostly Cloudy
1:50 PM 42.8 °F 38.6 °F 28.4 °F 57% 30.39 in 6.2 mi NE 6.9 mph - N/A   Scattered Clouds
2:20 PM 42.8 °F 39.3 °F 28.4 °F 57% 30.39 in 6.2 mi NE 5.8 mph - N/A   Mostly Cloudy
2:50 PM 42.8 °F - 28.4 °F 57% 30.39 in 6.2 mi Calm Calm - N/A   Mostly Cloudy
3:20 PM 42.8 °F 40.1 °F 30.2 °F 61% 30.39 in 6.2 mi NNE 4.6 mph - N/A   Scattered Clouds
3:50 PM 42.8 °F 40.1 °F 30.2 °F 61% 30.39 in 6.2 mi NE 4.6 mph - N/A   Partly Cloudy
4:20 PM 42.8 °F - 30.2 °F 61% 30.39 in 6.2 mi Calm Calm - N/A   Partly Cloudy
4:50 PM 42.8 °F - 30.2 °F 61% 30.39 in 6.2 mi Calm Calm - N/A   Partly Cloudy
5:20 PM 42.8 °F - 30.2 °F 61% 30.39 in 6.2 mi Calm Calm - N/A   Partly Cloudy
6:20 PM 37.4 °F - 30.2 °F 75% 30.39 in 6.2 mi Calm Calm - N/A   Partly Cloudy
6:50 PM 37.4 °F 33.8 °F 30.2 °F 75% 30.39 in 6.2 mi NNE 4.6 mph - N/A   Partly Cloudy